| time (UTC) | temp F | wind direction | speed MPH | gust MPH | rain 1hr in | rain 24hr in | rain mn in | humidity % | barometer mb |
| 20260504191938 | 65 | 290 | 0.0 | 0.0 | 0.00 | 0.00 | 0.00 | 73 | 1014.5 |
| 20260504191435 | 64 | 308 | 1.0 | 1.0 | 0.00 | 0.00 | 0.00 | 73 | 1014.6 |
| 20260504190930 | 62 | 212 | 1.0 | 2.0 | 0.00 | 0.00 | 0.00 | 79 | 1014.6 |
| 20260504190426 | 62 | 122 | 1.0 | 1.0 | 0.00 | 0.00 | 0.00 | 78 | 1014.9 |
| 20260504185923 | 61 | 280 | 1.0 | 1.0 | 0.00 | 0.00 | 0.00 | 78 | 1014.6 |
| 20260504185420 | 62 | 297 | 3.0 | 5.0 | 0.00 | 0.00 | 0.00 | 78 | 1014.8 |
| 20260504184916 | 63 | 302 | 0.0 | 2.0 | 0.00 | 0.00 | 0.00 | 76 | 1014.8 |
| 20260504184412 | 62 | 300 | 0.0 | 0.0 | 0.00 | 0.00 | 0.00 | 79 | 1014.9 |
| 20260504183908 | 61 | 303 | 2.0 | 2.0 | 0.00 | 0.00 | 0.00 | 78 | 1014.9 |
| 20260504183405 | 61 | 304 | 0.0 | 1.0 | 0.00 | 0.00 | 0.00 | 80 | 1014.7 |
| 20260504182903 | 62 | 299 | 1.0 | 1.0 | 0.00 | 0.00 | 0.00 | 77 | 1014.8 |
| 20260504182400 | 62 | 300 | 1.0 | 1.0 | 0.00 | 0.00 | 0.00 | 78 | 1014.7 |
| 20260504181856 | 61 | 313 | 0.0 | 0.0 | 0.00 | 0.00 | 0.00 | 81 | 1014.8 |
| 20260504181354 | 60 | 311 | 0.0 | 0.0 | 0.00 | 0.00 | 0.00 | 81 | 1014.6 |
| 20260504180853 | 60 | 299 | 3.0 | 3.0 | 0.00 | 0.00 | 0.00 | 80 | 1014.8 |
| 20260504180351 | 60 | 310 | 1.0 | 2.0 | 0.00 | 0.00 | 0.00 | 81 | 1014.7 |
| 20260504175849 | 61 | 310 | 2.0 | 3.0 | 0.00 | 0.00 | 0.00 | 79 | 1014.7 |
| 20260504175345 | 60 | 299 | 0.0 | 0.0 | 0.00 | 0.00 | 0.00 | 83 | 1014.9 |
| 20260504174844 | 60 | 305 | 0.0 | 1.0 | 0.00 | 0.00 | 0.00 | 82 | 1014.6 |
| 20260504174341 | 60 | 318 | 0.0 | 1.0 | 0.00 | 0.00 | 0.00 | 82 | 1014.7 |
| 20260504173838 | 59 | 307 | 1.0 | 2.0 | 0.00 | 0.00 | 0.00 | 82 | 1014.7 |
| 20260504173334 | 60 | 314 | 1.0 | 2.0 | 0.00 | 0.00 | 0.00 | 82 | 1014.6 |
| 20260504172831 | 59 | 303 | 0.0 | 1.0 | 0.00 | 0.00 | 0.00 | 82 | 1014.8 |
| 20260504172328 | 59 | 292 | 0.0 | 0.0 | 0.00 | 0.00 | 0.00 | 83 | 1014.8 |
| 20260504171824 | 59 | 308 | 1.0 | 1.0 | 0.00 | 0.00 | 0.00 | 83 | 1014.7 |
| 20260504171321 | 59 | 305 | 1.0 | 1.0 | 0.00 | 0.00 | 0.00 | 83 | 1014.8 |
| 20260504170819 | 59 | 293 | 1.0 | 1.0 | 0.00 | 0.00 | 0.00 | 84 | 1014.9 |
| 20260504170315 | 59 | 314 | 1.0 | 1.0 | 0.00 | 0.00 | 0.00 | 84 | 1014.5 |
| 20260504160233 | 58 | 297 | 0.0 | 0.0 | 0.00 | 0.00 | 0.00 | 86 | 1014.8 |
| 20260504150659 | 56 | 326 | 2.0 | 2.0 | 0.00 | 0.00 | 0.00 | 88 | 1014.4 |
| 20260504150156 | 56 | 290 | 1.0 | 1.0 | 0.00 | 0.00 | 0.00 | 88 | 1014.3 |
| 20260504141124 | 57 | 291 | 0.0 | 0.0 | 0.00 | 0.00 | 0.00 | 86 | 1013.6 |
| 20260504140621 | 56 | 290 | 0.0 | 1.0 | 0.00 | 0.00 | 0.00 | 89 | 1013.6 |
| 20260504140117 | 55 | 297 | 0.0 | 0.0 | 0.00 | 0.00 | 0.00 | 92 | 1013.6 |
| 20260504130545 | 53 | 288 | 0.0 | 0.0 | 0.00 | 0.00 | 0.00 | 93 | 1012.7 |
| 20260504110433 | 57 | 287 | 0.0 | 0.0 | 0.00 | 0.00 | 0.00 | 84 | 1011.2 |
| 20260504100355 | 60 | 287 | 0.0 | 0.0 | 0.00 | 0.00 | 0.00 | 80 | 1010.3 |
| 20260504081748 | 62 | 294 | 0.0 | 0.0 | 0.00 | 0.00 | 0.00 | 73 | 1009.6 |
| 20260504081245 | 62 | 294 | 0.0 | 0.0 | 0.00 | 0.00 | 0.00 | 72 | 1009.6 |
| 20260504080741 | 62 | 294 | 0.0 | 0.0 | 0.00 | 0.00 | 0.00 | 71 | 1009.5 |
| 20260504080238 | 62 | 294 | 0.0 | 0.0 | 0.00 | 0.00 | 0.00 | 72 | 1009.3 |
| 20260504070205 | 65 | 294 | 0.0 | 1.0 | 0.00 | 0.00 | 0.00 | 63 | 1009.0 |
| 20260504060126 | 71 | 306 | 0.0 | 0.0 | 0.00 | 0.00 | 0.00 | 51 | 1008.5 |
| 20260504050554 | 75 | 308 | 0.0 | 0.0 | 0.00 | 0.00 | 0.00 | 44 | 1008.2 |
| 20260504045548 | 75 | 310 | 1.0 | 1.0 | 0.00 | 0.00 | 0.00 | 47 | 1008.5 |
| 20260504045043 | 75 | 295 | 0.0 | 1.0 | 0.00 | 0.00 | 0.00 | 47 | 1008.4 |
| 20260504044541 | 75 | 304 | 0.0 | 0.0 | 0.00 | 0.00 | 0.00 | 46 | 1008.5 |
| 20260504044038 | 75 | 311 | 0.0 | 0.0 | 0.00 | 0.00 | 0.00 | 45 | 1008.3 |
| 20260504043534 | 75 | 307 | 0.0 | 1.0 | 0.00 | 0.00 | 0.00 | 48 | 1008.2 |
| 20260504043032 | 75 | 285 | 0.0 | 0.0 | 0.00 | 0.00 | 0.00 | 48 | 1008.1 |
| 20260504042529 | 75 | 291 | 0.0 | 0.0 | 0.00 | 0.00 | 0.00 | 49 | 1008.3 |
| 20260504042026 | 75 | 290 | 0.0 | 1.0 | 0.00 | 0.00 | 0.00 | 48 | 1008.1 |
| 20260504041522 | 75 | 301 | 0.0 | 0.0 | 0.00 | 0.00 | 0.00 | 48 | 1008.0 |
| 20260504041018 | 76 | 304 | 0.0 | 0.0 | 0.00 | 0.00 | 0.00 | 47 | 1008.1 |
| 20260504040516 | 76 | 302 | 0.0 | 0.0 | 0.00 | 0.00 | 0.00 | 47 | 1008.1 |
| 20260504040012 | 76 | 302 | 0.0 | 0.0 | 0.00 | 0.00 | 0.00 | 46 | 1008.1 |
| 20260504035509 | 77 | 291 | 0.0 | 0.0 | 0.00 | 0.00 | 0.00 | 46 | 1008.0 |
| 20260504035005 | 77 | 295 | 0.0 | 0.0 | 0.00 | 0.00 | 0.00 | 45 | 1007.7 |
| 20260504034503 | 77 | 281 | 0.0 | 0.0 | 0.00 | 0.00 | 0.00 | 45 | 1007.9 |
| 20260504034000 | 78 | 293 | 0.0 | 0.0 | 0.00 | 0.00 | 0.00 | 44 | 1007.6 |
| 20260504033457 | 78 | 313 | 0.0 | 0.0 | 0.00 | 0.00 | 0.00 | 43 | 1007.7 |
| 20260504032955 | 78 | 283 | 0.0 | 0.0 | 0.00 | 0.00 | 0.00 | 43 | 1007.4 |
| 20260504032452 | 79 | 283 | 1.0 | 1.0 | 0.00 | 0.00 | 0.00 | 43 | 1007.5 |
| 20260504031948 | 80 | 283 | 0.0 | 0.0 | 0.00 | 0.00 | 0.00 | 42 | 1007.6 |
| 20260504031445 | 80 | 303 | 0.0 | 1.0 | 0.00 | 0.00 | 0.00 | 42 | 1007.6 |
| 20260504030942 | 80 | 298 | 0.0 | 0.0 | 0.00 | 0.00 | 0.00 | 40 | 1007.3 |
| 20260504030439 | 80 | 313 | 0.0 | 1.0 | 0.00 | 0.00 | 0.00 | 40 | 1007.5 |
| 20260504025934 | 81 | 303 | 0.0 | 0.0 | 0.00 | 0.00 | 0.00 | 39 | 1007.6 |
| 20260504025432 | 82 | 297 | 0.0 | 1.0 | 0.00 | 0.00 | 0.00 | 37 | 1007.5 |
| 20260504024929 | 82 | 299 | 0.0 | 0.0 | 0.00 | 0.00 | 0.00 | 36 | 1007.3 |
| 20260504024426 | 83 | 295 | 0.0 | 0.0 | 0.00 | 0.00 | 0.00 | 36 | 1007.4 |
| 20260504023923 | 84 | 279 | 1.0 | 1.0 | 0.00 | 0.00 | 0.00 | 34 | 1007.5 |
| 20260504023419 | 84 | 293 | 0.0 | 0.0 | 0.00 | 0.00 | 0.00 | 35 | 1007.5 |
| 20260504022915 | 85 | 341 | 0.0 | 0.0 | 0.00 | 0.00 | 0.00 | 35 | 1007.3 |
| 20260504022412 | 86 | 284 | 0.0 | 0.0 | 0.00 | 0.00 | 0.00 | 33 | 1007.6 |
| 20260504021908 | 86 | 317 | 0.0 | 0.0 | 0.00 | 0.00 | 0.00 | 34 | 1007.5 |
| 20260504021405 | 87 | 308 | 1.0 | 1.0 | 0.00 | 0.00 | 0.00 | 33 | 1007.6 |
| 20260504020903 | 88 | 308 | 1.0 | 1.0 | 0.00 | 0.00 | 0.00 | 32 | 1007.6 |
| 20260504020359 | 88 | 277 | 1.0 | 1.0 | 0.00 | 0.00 | 0.00 | 31 | 1007.8 |
| 20260504015855 | 89 | 299 | 1.0 | 1.0 | 0.00 | 0.00 | 0.00 | 33 | 1007.8 |
| 20260504015351 | 89 | 302 | 0.0 | 1.0 | 0.00 | 0.00 | 0.00 | 31 | 1007.8 |
| 20260504014847 | 89 | 318 | 0.0 | 0.0 | 0.00 | 0.00 | 0.00 | 32 | 1008.1 |
| 20260504014343 | 88 | 294 | 0.0 | 0.0 | 0.00 | 0.00 | 0.00 | 32 | 1008.0 |
| 20260504013841 | 87 | 308 | 2.0 | 2.0 | 0.00 | 0.00 | 0.00 | 31 | 1007.6 |
| 20260504013339 | 87 | 314 | 1.0 | 2.0 | 0.00 | 0.00 | 0.00 | 32 | 1007.5 |
| 20260504012836 | 87 | 294 | 1.0 | 1.0 | 0.00 | 0.00 | 0.00 | 31 | 1007.6 |
| 20260504012333 | 88 | 294 | 0.0 | 1.0 | 0.00 | 0.00 | 0.00 | 32 | 1007.7 |
| 20260504011831 | 88 | 303 | 0.0 | 0.0 | 0.00 | 0.00 | 0.00 | 30 | 1007.7 |
| 20260504011327 | 88 | 308 | 0.0 | 0.0 | 0.00 | 0.00 | 0.00 | 33 | 1007.6 |
| 20260504010823 | 88 | 305 | 1.0 | 2.0 | 0.00 | 0.00 | 0.00 | 31 | 1007.7 |
| 20260504010319 | 88 | 316 | 1.0 | 1.0 | 0.00 | 0.00 | 0.00 | 30 | 1007.8 |
| 20260504005815 | 88 | 292 | 2.0 | 3.0 | 0.00 | 0.00 | 0.00 | 29 | 1007.7 |
| 20260504005312 | 88 | 295 | 0.0 | 0.0 | 0.00 | 0.00 | 0.00 | 30 | 1007.8 |
| 20260504004810 | 88 | 298 | 0.0 | 0.0 | 0.00 | 0.00 | 0.00 | 31 | 1008.0 |
| 20260504004308 | 89 | 306 | 1.0 | 1.0 | 0.00 | 0.00 | 0.00 | 29 | 1007.6 |
| 20260504003804 | 89 | 294 | 2.0 | 3.0 | 0.00 | 0.00 | 0.00 | 28 | 1007.8 |
| 20260504003301 | 88 | 295 | 0.0 | 1.0 | 0.00 | 0.00 | 0.00 | 30 | 1007.7 |
| 20260504002757 | 89 | 305 | 2.0 | 2.0 | 0.00 | 0.00 | 0.00 | 31 | 1007.8 |
| 20260504002254 | 89 | 334 | 1.0 | 2.0 | 0.00 | 0.00 | 0.00 | 30 | 1007.9 |
| 20260504001752 | 89 | 318 | 0.0 | 1.0 | 0.00 | 0.00 | 0.00 | 29 | 1007.8 |
| 20260504001249 | 89 | 146 | 3.0 | 5.0 | 0.00 | 0.00 | 0.00 | 29 | 1007.9 |
| 20260504000746 | 89 | 306 | 0.0 | 0.0 | 0.00 | 0.00 | 0.00 | 30 | 1008.0 |
| 20260504000243 | 89 | 318 | 1.0 | 2.0 | 0.00 | 0.00 | 0.00 | 30 | 1007.8 |
| 20260503235741 | 89 | 300 | 2.0 | 2.0 | 0.00 | 0.00 | 0.00 | 29 | 1008.0 |
| 20260503235237 | 89 | 302 | 1.0 | 1.0 | 0.00 | 0.00 | 0.00 | 32 | 1007.8 |
| 20260503234735 | 89 | 281 | 1.0 | 1.0 | 0.00 | 0.00 | 0.00 | 28 | 1008.0 |
| 20260503234233 | 89 | 299 | 1.0 | 1.0 | 0.00 | 0.00 | 0.00 | 28 | 1008.1 |
| 20260503233730 | 89 | 336 | 0.0 | 1.0 | 0.00 | 0.00 | 0.00 | 28 | 1008.1 |
| 20260503233225 | 89 | 321 | 1.0 | 2.0 | 0.00 | 0.00 | 0.00 | 29 | 1008.2 |
| 20260503232723 | 89 | 294 | 0.0 | 1.0 | 0.00 | 0.00 | 0.00 | 29 | 1008.0 |
| 20260503232220 | 89 | 325 | 2.0 | 2.0 | 0.00 | 0.00 | 0.00 | 28 | 1008.4 |
| 20260503231718 | 89 | 30 | 3.0 | 3.0 | 0.00 | 0.00 | 0.00 | 28 | 1008.4 |
| 20260503231215 | 89 | 287 | 0.0 | 1.0 | 0.00 | 0.00 | 0.00 | 28 | 1008.3 |
| 20260503230711 | 89 | 131 | 2.0 | 2.0 | 0.00 | 0.00 | 0.00 | 27 | 1008.4 |
| 20260503230208 | 89 | 313 | 0.0 | 0.0 | 0.00 | 0.00 | 0.00 | 27 | 1008.4 |
| 20260503225706 | 89 | 316 | 1.0 | 1.0 | 0.00 | 0.00 | 0.00 | 29 | 1008.6 |
| 20260503225206 | 89 | 9 | 2.0 | 2.0 | 0.00 | 0.00 | 0.00 | 28 | 1008.7 |
| 20260503224703 | 89 | 286 | 3.0 | 8.0 | 0.00 | 0.00 | 0.00 | 27 | 1008.8 |
| 20260503224201 | 89 | 335 | 0.0 | 0.0 | 0.00 | 0.00 | 0.00 | 30 | 1008.6 |
| 20260503223658 | 89 | 286 | 0.0 | 1.0 | 0.00 | 0.00 | 0.00 | 32 | 1008.9 |
| 20260503223155 | 89 | 287 | 2.0 | 2.0 | 0.00 | 0.00 | 0.00 | 28 | 1008.9 |
| 20260503222652 | 88 | 300 | 2.0 | 2.0 | 0.00 | 0.00 | 0.00 | 31 | 1009.0 |
| 20260503222150 | 88 | 297 | 0.0 | 1.0 | 0.00 | 0.00 | 0.00 | 32 | 1009.3 |
| 20260503221648 | 88 | 294 | 0.0 | 0.0 | 0.00 | 0.00 | 0.00 | 31 | 1009.2 |
| 20260503221145 | 88 | 310 | 1.0 | 1.0 | 0.00 | 0.00 | 0.00 | 30 | 1009.3 |
| 20260503220641 | 88 | 298 | 2.0 | 2.0 | 0.00 | 0.00 | 0.00 | 31 | 1009.2 |
| 20260503220138 | 88 | 301 | 2.0 | 2.0 | 0.00 | 0.00 | 0.00 | 31 | 1009.4 |
| 20260503215636 | 88 | 303 | 0.0 | 1.0 | 0.00 | 0.00 | 0.00 | 32 | 1009.7 |
| 20260503215132 | 88 | 313 | 1.0 | 1.0 | 0.00 | 0.00 | 0.00 | 30 | 1009.4 |
| 20260503214631 | 88 | 296 | 0.0 | 0.0 | 0.00 | 0.00 | 0.00 | 35 | 1009.7 |
| 20260503214126 | 87 | 300 | 1.0 | 1.0 | 0.00 | 0.00 | 0.00 | 36 | 1009.5 |
| 20260503213626 | 87 | 292 | 0.0 | 1.0 | 0.00 | 0.00 | 0.00 | 37 | 1009.8 |
| 20260503213122 | 87 | 284 | 0.0 | 0.0 | 0.00 | 0.00 | 0.00 | 35 | 1009.8 |
| 20260503212620 | 87 | 263 | 2.0 | 3.0 | 0.00 | 0.00 | 0.00 | 37 | 1009.7 |
| 20260503212117 | 87 | 308 | 0.0 | 0.0 | 0.00 | 0.00 | 0.00 | 40 | 1010.0 |
| 20260503211614 | 87 | 305 | 1.0 | 2.0 | 0.00 | 0.00 | 0.00 | 37 | 1010.0 |
| 20260503211110 | 86 | 293 | 1.0 | 2.0 | 0.00 | 0.00 | 0.00 | 36 | 1010.0 |
| 20260503210606 | 86 | 261 | 1.0 | 2.0 | 0.00 | 0.00 | 0.00 | 37 | 1010.1 |
| 20260503205559 | 86 | 220 | 1.0 | 2.0 | 0.00 | 0.00 | 0.00 | 39 | 1010.4 |
| 20260503205055 | 86 | 317 | 3.0 | 3.0 | 0.00 | 0.00 | 0.00 | 40 | 1010.4 |
| 20260503204552 | 85 | 314 | 0.0 | 1.0 | 0.00 | 0.00 | 0.00 | 39 | 1010.5 |
| 20260503204049 | 86 | 296 | 1.0 | 1.0 | 0.00 | 0.00 | 0.00 | 40 | 1010.4 |
| 20260503203546 | 86 | 309 | 3.0 | 5.0 | 0.00 | 0.00 | 0.00 | 39 | 1010.5 |
| 20260503203043 | 86 | 225 | 1.0 | 1.0 | 0.00 | 0.00 | 0.00 | 41 | 1010.5 |
| 20260503202541 | 85 | 271 | 1.0 | 1.0 | 0.00 | 0.00 | 0.00 | 39 | 1010.5 |
| 20260503202039 | 86 | 145 | 2.0 | 2.0 | 0.00 | 0.00 | 0.00 | 41 | 1010.7 |
| 20260503201537 | 84 | 140 | 2.0 | 2.0 | 0.00 | 0.00 | 0.00 | 41 | 1011.0 |
| 20260503201034 | 85 | 292 | 1.0 | 1.0 | 0.00 | 0.00 | 0.00 | 42 | 1010.6 |
| 20260503200530 | 84 | 289 | 0.0 | 0.0 | 0.00 | 0.00 | 0.00 | 43 | 1010.7 |
| 20260503200027 | 84 | 138 | 2.0 | 3.0 | 0.00 | 0.00 | 0.00 | 44 | 1010.8 |
| 20260503195524 | 85 | 290 | 1.0 | 1.0 | 0.00 | 0.00 | 0.00 | 43 | 1010.8 |
| 20260503195021 | 84 | 301 | 1.0 | 2.0 | 0.00 | 0.00 | 0.00 | 43 | 1011.0 |
| 20260503194518 | 84 | 273 | 1.0 | 1.0 | 0.00 | 0.00 | 0.00 | 45 | 1011.4 |
| 20260503194018 | 82 | 295 | 1.0 | 1.0 | 0.00 | 0.00 | 0.00 | 47 | 1011.2 |
| 20260503193515 | 82 | 286 | 3.0 | 3.0 | 0.00 | 0.00 | 0.00 | 45 | 1011.3 |
| 20260503193010 | 83 | 313 | 1.0 | 2.0 | 0.00 | 0.00 | 0.00 | 44 | 1011.4 |
| 20260503192506 | 83 | 110 | 1.0 | 1.0 | 0.00 | 0.00 | 0.00 | 44 | 1011.4 |